| time (UTC) | temp C | wind direction | speed KPH | gust KPH | rain 1hr cm | rain 24hr cm | rain mn cm | humidity % | barometer mb |
| 20260508125511 | 12 | 194 | 0.0 | 3.2 | 0.00 | 0.00 | 0.00 | 87 | 1016.8 |
| 20260508125009 | 11 | 216 | 3.2 | 3.2 | 0.00 | 0.00 | 0.00 | 89 | 1016.8 |
| 20260508124507 | 11 | 212 | 3.2 | 3.2 | 0.00 | 0.00 | 0.00 | 89 | 1016.8 |
| 20260508124004 | 11 | 230 | 0.0 | 1.6 | 0.00 | 0.00 | 0.00 | 89 | 1016.8 |
| 20260508123502 | 11 | 226 | 3.2 | 4.8 | 0.00 | 0.00 | 0.00 | 90 | 1016.8 |
| 20260508122957 | 11 | 182 | 0.0 | 0.0 | 0.00 | 0.00 | 0.00 | 91 | 1016.7 |
| 20260508122455 | 11 | 190 | 0.0 | 0.0 | 0.00 | 0.00 | 0.00 | 92 | 1016.6 |
| 20260508121951 | 11 | 183 | 0.0 | 0.0 | 0.00 | 0.00 | 0.00 | 92 | 1016.5 |
| 20260508121450 | 10 | 186 | 0.0 | 1.6 | 0.00 | 0.00 | 0.00 | 92 | 1016.6 |
| 20260508120947 | 10 | 188 | 0.0 | 0.0 | 0.00 | 0.00 | 0.00 | 93 | 1016.8 |
| 20260508120445 | 8 | 201 | 0.0 | 0.0 | 0.00 | 0.00 | 0.00 | 93 | 1016.4 |
| 20260508115943 | 8 | 185 | 3.2 | 3.2 | 0.00 | 0.00 | 0.00 | 93 | 1016.4 |
| 20260508115440 | 8 | 192 | 1.6 | 3.2 | 0.00 | 0.00 | 0.00 | 93 | 1016.2 |
| 20260508114936 | 8 | 185 | 0.0 | 0.0 | 0.00 | 0.00 | 0.00 | 94 | 1016.3 |
| 20260508114434 | 7 | 185 | 0.0 | 0.0 | 0.00 | 0.00 | 0.00 | 94 | 1016.0 |
| 20260508113930 | 7 | 170 | 0.0 | 1.6 | 0.00 | 0.00 | 0.00 | 94 | 1016.1 |
| 20260508113428 | 7 | 191 | 1.6 | 1.6 | 0.00 | 0.00 | 0.00 | 94 | 1016.0 |
| 20260508112925 | 6 | 179 | 0.0 | 0.0 | 0.00 | 0.00 | 0.00 | 94 | 1015.9 |
| 20260508112422 | 6 | 171 | 0.0 | 3.2 | 0.00 | 0.00 | 0.00 | 94 | 1015.8 |
| 20260508111918 | 5 | 161 | 0.0 | 0.0 | 0.00 | 0.00 | 0.00 | 94 | 1015.7 |
| 20260508111415 | 5 | 222 | 1.6 | 3.2 | 0.00 | 0.00 | 0.00 | 94 | 1015.7 |
| 20260508110913 | 4 | 179 | 0.0 | 0.0 | 0.00 | 0.00 | 0.00 | 94 | 1015.8 |
| 20260508110410 | 3 | 179 | 0.0 | 0.0 | 0.00 | 0.00 | 0.00 | 93 | 1015.8 |
| 20260508105910 | 3 | 176 | 0.0 | 0.0 | 0.00 | 0.00 | 0.00 | 93 | 1015.6 |
| 20260508105406 | 3 | 145 | 0.0 | 0.0 | 0.00 | 0.00 | 0.00 | 93 | 1015.5 |
| 20260508104904 | 3 | 150 | 1.6 | 1.6 | 0.00 | 0.00 | 0.00 | 93 | 1015.5 |
| 20260508104401 | 3 | 180 | 1.6 | 1.6 | 0.00 | 0.00 | 0.00 | 93 | 1015.1 |
| 20260508103858 | 3 | 192 | 0.0 | 0.0 | 0.00 | 0.00 | 0.00 | 93 | 1015.2 |
| 20260508103355 | 4 | 192 | 0.0 | 1.6 | 0.00 | 0.00 | 0.00 | 93 | 1014.9 |
| 20260508102852 | 4 | 178 | 0.0 | 1.6 | 0.00 | 0.00 | 0.00 | 93 | 1014.9 |
| 20260508102350 | 5 | 39 | 3.2 | 3.2 | 0.00 | 0.00 | 0.00 | 93 | 1014.9 |
| 20260508101847 | 4 | 171 | 0.0 | 1.6 | 0.00 | 0.00 | 0.00 | 92 | 1014.7 |
| 20260508101344 | 5 | 198 | 0.0 | 1.6 | 0.00 | 0.00 | 0.00 | 93 | 1014.8 |
| 20260508100842 | 5 | 120 | 1.6 | 3.2 | 0.00 | 0.00 | 0.00 | 92 | 1014.8 |
| 20260508100341 | 5 | 103 | 4.8 | 4.8 | 0.00 | 0.00 | 0.00 | 92 | 1014.6 |
| 20260508095835 | 5 | 189 | 0.0 | 1.6 | 0.00 | 0.00 | 0.00 | 92 | 1014.6 |
| 20260508095333 | 5 | 78 | 3.2 | 6.4 | 0.00 | 0.00 | 0.00 | 92 | 1014.5 |
| 20260508094831 | 4 | 109 | 3.2 | 3.2 | 0.00 | 0.00 | 0.00 | 92 | 1014.5 |
| 20260508094327 | 5 | 189 | 1.6 | 1.6 | 0.00 | 0.00 | 0.00 | 92 | 1014.5 |
| 20260508093825 | 5 | 136 | 3.2 | 4.8 | 0.00 | 0.00 | 0.00 | 92 | 1014.6 |
| 20260508093322 | 5 | 179 | 1.6 | 1.6 | 0.00 | 0.00 | 0.00 | 91 | 1014.5 |
| 20260508092820 | 5 | 277 | 3.2 | 4.8 | 0.00 | 0.00 | 0.00 | 91 | 1014.5 |
| 20260508092317 | 5 | 178 | 0.0 | 0.0 | 0.00 | 0.00 | 0.00 | 91 | 1014.3 |
| 20260508091815 | 5 | 180 | 0.0 | 3.2 | 0.00 | 0.00 | 0.00 | 91 | 1014.1 |
| 20260508091311 | 5 | 186 | 0.0 | 1.6 | 0.00 | 0.00 | 0.00 | 91 | 1014.1 |
| 20260508090809 | 5 | 186 | 0.0 | 1.6 | 0.00 | 0.00 | 0.00 | 90 | 1014.3 |
| 20260508090308 | 6 | 212 | 1.6 | 3.2 | 0.00 | 0.00 | 0.00 | 90 | 1014.0 |
| 20260508085803 | 6 | 150 | 1.6 | 4.8 | 0.00 | 0.00 | 0.00 | 90 | 1014.3 |
| 20260508085300 | 5 | 57 | 4.8 | 4.8 | 0.00 | 0.00 | 0.00 | 90 | 1014.0 |
| 20260508084756 | 5 | 146 | 1.6 | 1.6 | 0.00 | 0.00 | 0.00 | 89 | 1014.0 |
| 20260508084254 | 6 | 169 | 0.0 | 3.2 | 0.00 | 0.00 | 0.00 | 89 | 1014.0 |
| 20260508083751 | 5 | 106 | 3.2 | 3.2 | 0.00 | 0.00 | 0.00 | 88 | 1014.3 |
| 20260508083249 | 6 | 136 | 1.6 | 1.6 | 0.00 | 0.00 | 0.00 | 88 | 1014.3 |
| 20260508082748 | 5 | 161 | 1.6 | 1.6 | 0.00 | 0.00 | 0.00 | 87 | 1014.0 |
| 20260508082246 | 6 | 154 | 0.0 | 1.6 | 0.00 | 0.00 | 0.00 | 87 | 1014.0 |
| 20260508081743 | 6 | 189 | 0.0 | 0.0 | 0.00 | 0.00 | 0.00 | 86 | 1013.9 |
| 20260508081240 | 6 | 190 | 0.0 | 0.0 | 0.00 | 0.00 | 0.00 | 86 | 1013.6 |
| 20260508080737 | 6 | 184 | 0.0 | 0.0 | 0.00 | 0.00 | 0.00 | 86 | 1013.7 |
| 20260508080235 | 6 | 189 | 0.0 | 0.0 | 0.00 | 0.00 | 0.00 | 85 | 1013.5 |
| 20260508075731 | 7 | 191 | 0.0 | 1.6 | 0.00 | 0.00 | 0.00 | 85 | 1013.7 |
| 20260508075228 | 7 | 147 | 1.6 | 3.2 | 0.00 | 0.00 | 0.00 | 85 | 1013.5 |
| 20260508074726 | 7 | 164 | 1.6 | 1.6 | 0.00 | 0.00 | 0.00 | 85 | 1013.7 |
| 20260508074223 | 8 | 155 | 1.6 | 3.2 | 0.00 | 0.00 | 0.00 | 84 | 1013.6 |
| 20260508073720 | 8 | 140 | 3.2 | 3.2 | 0.00 | 0.00 | 0.00 | 84 | 1013.5 |
| 20260508073218 | 8 | 128 | 1.6 | 3.2 | 0.00 | 0.00 | 0.00 | 84 | 1013.5 |
| 20260508072714 | 8 | 157 | 1.6 | 1.6 | 0.00 | 0.00 | 0.00 | 84 | 1013.4 |
| 20260508072211 | 9 | 137 | 3.2 | 4.8 | 0.00 | 0.00 | 0.00 | 84 | 1013.3 |
| 20260508071708 | 10 | 125 | 4.8 | 6.4 | 0.00 | 0.00 | 0.00 | 84 | 1013.4 |
| 20260508071206 | 9 | 342 | 6.4 | 6.4 | 0.00 | 0.00 | 0.00 | 85 | 1013.4 |
| 20260508070703 | 10 | 162 | 0.0 | 1.6 | 0.00 | 0.00 | 0.00 | 85 | 1013.4 |
| 20260508070202 | 9 | 66 | 1.6 | 1.6 | 0.00 | 0.00 | 0.00 | 86 | 1013.6 |
| 20260508065659 | 9 | 105 | 1.6 | 3.2 | 0.00 | 0.00 | 0.00 | 87 | 1013.5 |
| 20260508065157 | 9 | 209 | 3.2 | 9.7 | 0.00 | 0.00 | 0.00 | 88 | 1013.3 |
| 20260508064654 | 9 | 187 | 0.0 | 3.2 | 0.00 | 0.00 | 0.00 | 89 | 1013.4 |
| 20260508064152 | 8 | 152 | 1.6 | 3.2 | 0.00 | 0.00 | 0.00 | 89 | 1013.2 |
| 20260508063649 | 8 | 161 | 1.6 | 4.8 | 0.00 | 0.00 | 0.00 | 90 | 1013.4 |
| 20260508063147 | 8 | 162 | 1.6 | 4.8 | 0.00 | 0.00 | 0.00 | 90 | 1013.4 |
| 20260508062644 | 8 | 144 | 1.6 | 3.2 | 0.00 | 0.00 | 0.00 | 90 | 1013.4 |
| 20260508062141 | 8 | 121 | 3.2 | 4.8 | 0.00 | 0.00 | 0.00 | 90 | 1013.4 |
| 20260508061638 | 8 | 140 | 1.6 | 1.6 | 0.00 | 0.00 | 0.00 | 91 | 1013.3 |
| 20260508061136 | 8 | 190 | 1.6 | 3.2 | 0.00 | 0.00 | 0.00 | 91 | 1013.6 |
| 20260508060632 | 7 | 136 | 1.6 | 3.2 | 0.00 | 0.00 | 0.00 | 91 | 1013.5 |
| 20260508060130 | 7 | 183 | 0.0 | 1.6 | 0.00 | 0.00 | 0.00 | 91 | 1013.7 |
| 20260508055625 | 7 | 130 | 1.6 | 3.2 | 0.00 | 0.00 | 0.00 | 91 | 1013.6 |
| 20260508055122 | 6 | 56 | 3.2 | 3.2 | 0.00 | 0.00 | 0.00 | 91 | 1013.5 |
| 20260508054618 | 7 | 189 | 0.0 | 1.6 | 0.00 | 0.00 | 0.00 | 91 | 1013.6 |
| 20260508054116 | 7 | 187 | 0.0 | 1.6 | 0.00 | 0.00 | 0.00 | 91 | 1013.5 |
| 20260508053613 | 7 | 145 | 0.0 | 1.6 | 0.00 | 0.00 | 0.00 | 90 | 1013.6 |
| 20260508053111 | 7 | 153 | 1.6 | 3.2 | 0.00 | 0.00 | 0.00 | 90 | 1013.5 |
| 20260508052608 | 7 | 167 | 1.6 | 1.6 | 0.00 | 0.00 | 0.00 | 90 | 1013.4 |
| 20260508052105 | 7 | 175 | 0.0 | 0.0 | 0.00 | 0.00 | 0.00 | 90 | 1013.5 |
| 20260508051601 | 7 | 172 | 0.0 | 1.6 | 0.00 | 0.00 | 0.00 | 90 | 1013.4 |
| 20260508051056 | 8 | 83 | 3.2 | 4.8 | 0.00 | 0.00 | 0.00 | 90 | 1013.4 |
| 20260508050553 | 8 | 94 | 3.2 | 3.2 | 0.00 | 0.00 | 0.00 | 90 | 1013.4 |
| 20260508050050 | 8 | 195 | 0.0 | 4.8 | 0.00 | 0.00 | 0.00 | 89 | 1013.2 |
| 20260508045546 | 8 | 128 | 3.2 | 4.8 | 0.00 | 0.00 | 0.00 | 89 | 1013.0 |
| 20260508045044 | 8 | 135 | 3.2 | 6.4 | 0.00 | 0.00 | 0.00 | 89 | 1013.1 |
| 20260508044541 | 8 | 112 | 3.2 | 4.8 | 0.00 | 0.00 | 0.00 | 89 | 1013.1 |
| 20260508044037 | 8 | 57 | 4.8 | 4.8 | 0.00 | 0.00 | 0.00 | 89 | 1013.3 |
| 20260508043534 | 8 | 167 | 0.0 | 1.6 | 0.00 | 0.00 | 0.00 | 89 | 1013.3 |
| 20260508043032 | 8 | 142 | 0.0 | 1.6 | 0.00 | 0.00 | 0.00 | 89 | 1013.0 |
| 20260508042528 | 8 | 141 | 1.6 | 3.2 | 0.00 | 0.00 | 0.00 | 89 | 1012.9 |
| 20260508042025 | 8 | 170 | 1.6 | 3.2 | 0.00 | 0.00 | 0.00 | 89 | 1013.1 |
| 20260508041521 | 8 | 166 | 1.6 | 1.6 | 0.00 | 0.00 | 0.00 | 89 | 1013.0 |
| 20260508041018 | 8 | 110 | 1.6 | 3.2 | 0.00 | 0.00 | 0.00 | 88 | 1012.8 |
| 20260508040515 | 8 | 32 | 3.2 | 3.2 | 0.00 | 0.00 | 0.00 | 88 | 1012.8 |
| 20260508040013 | 8 | 207 | 0.0 | 4.8 | 0.00 | 0.36 | 0.36 | 88 | 1012.7 |
| 20260508035510 | 8 | 174 | 0.0 | 0.0 | 0.00 | 0.36 | 0.36 | 88 | 1013.0 |
| 20260508035006 | 8 | 160 | 1.6 | 1.6 | 0.00 | 0.36 | 0.36 | 88 | 1012.8 |
| 20260508034504 | 8 | 156 | 1.6 | 3.2 | 0.00 | 0.36 | 0.36 | 88 | 1012.6 |
| 20260508034001 | 8 | 144 | 4.8 | 4.8 | 0.00 | 0.36 | 0.36 | 88 | 1012.7 |
| 20260508033458 | 8 | 182 | 0.0 | 0.0 | 0.00 | 0.36 | 0.36 | 88 | 1012.7 |
| 20260508032955 | 8 | 158 | 1.6 | 1.6 | 0.00 | 0.36 | 0.36 | 88 | 1012.4 |
| 20260508032453 | 8 | 196 | 0.0 | 0.0 | 0.00 | 0.36 | 0.36 | 87 | 1012.6 |
| 20260508031949 | 8 | 164 | 1.6 | 3.2 | 0.00 | 0.36 | 0.36 | 87 | 1012.4 |
| 20260508031448 | 8 | 190 | 0.0 | 1.6 | 0.00 | 0.36 | 0.36 | 87 | 1012.6 |
| 20260508030942 | 8 | 159 | 1.6 | 3.2 | 0.00 | 0.36 | 0.36 | 87 | 1012.6 |
| 20260508030440 | 9 | 37 | 1.6 | 4.8 | 0.00 | 0.36 | 0.36 | 87 | 1012.4 |
| 20260508025937 | 10 | 168 | 0.0 | 3.2 | 0.00 | 0.36 | 0.36 | 87 | 1012.4 |
| 20260508025433 | 9 | 137 | 3.2 | 3.2 | 0.00 | 0.36 | 0.36 | 87 | 1012.2 |
| 20260508024931 | 10 | 106 | 1.6 | 6.4 | 0.00 | 0.36 | 0.36 | 88 | 1012.4 |
| 20260508024427 | 8 | 177 | 3.2 | 4.8 | 0.00 | 0.36 | 0.36 | 87 | 1012.4 |
| 20260508023924 | 8 | 128 | 3.2 | 4.8 | 0.00 | 0.36 | 0.36 | 87 | 1012.4 |
| 20260508023421 | 9 | 152 | 3.2 | 4.8 | 0.00 | 0.36 | 0.36 | 87 | 1012.2 |
| 20260508022918 | 9 | 190 | 0.0 | 1.6 | 0.00 | 0.36 | 0.36 | 87 | 1012.2 |
| 20260508022413 | 9 | 196 | 0.0 | 4.8 | 0.00 | 0.36 | 0.36 | 87 | 1012.1 |
| 20260508021910 | 9 | 154 | 3.2 | 4.8 | 0.00 | 0.36 | 0.36 | 86 | 1012.0 |
| 20260508021406 | 9 | 140 | 3.2 | 4.8 | 0.00 | 0.36 | 0.36 | 86 | 1011.8 |
| 20260508020902 | 9 | 114 | 3.2 | 3.2 | 0.00 | 0.36 | 0.36 | 85 | 1011.8 |
| 20260508020401 | 9 | 181 | 0.0 | 1.6 | 0.00 | 0.36 | 0.36 | 85 | 1011.8 |
| 20260508015857 | 9 | 126 | 3.2 | 3.2 | 0.00 | 0.36 | 0.36 | 84 | 1011.8 |
| 20260508015355 | 10 | 128 | 0.0 | 3.2 | 0.00 | 0.36 | 0.36 | 84 | 1011.8 |
| 20260508014851 | 10 | 124 | 3.2 | 3.2 | 0.00 | 0.36 | 0.36 | 84 | 1011.8 |
| 20260508014349 | 10 | 165 | 1.6 | 4.8 | 0.00 | 0.36 | 0.36 | 83 | 1011.5 |
| 20260508013843 | 10 | 126 | 3.2 | 3.2 | 0.00 | 0.36 | 0.36 | 82 | 1011.4 |
| 20260508013340 | 10 | 159 | 1.6 | 4.8 | 0.00 | 0.36 | 0.36 | 81 | 1011.4 |
| 20260508012837 | 10 | 182 | 0.0 | 0.0 | 0.00 | 0.36 | 0.36 | 80 | 1011.4 |
| 20260508012335 | 10 | 197 | 0.0 | 1.6 | 0.00 | 0.36 | 0.36 | 79 | 1011.1 |
| 20260508011832 | 10 | 196 | 0.0 | 1.6 | 0.00 | 0.36 | 0.36 | 79 | 1011.0 |
| 20260508011330 | 11 | 184 | 0.0 | 1.6 | 0.00 | 0.36 | 0.36 | 78 | 1011.0 |
| 20260508010827 | 11 | 180 | 0.0 | 1.6 | 0.00 | 0.36 | 0.36 | 77 | 1010.8 |
| 20260508010325 | 11 | 184 | 0.0 | 1.6 | 0.00 | 0.36 | 0.36 | 76 | 1010.9 |
| 20260508005822 | 11 | 184 | 0.0 | 0.0 | 0.00 | 0.36 | 0.36 | 75 | 1010.7 |
| 20260508005318 | 11 | 183 | 0.0 | 1.6 | 0.00 | 0.36 | 0.36 | 74 | 1010.6 |
| 20260508004815 | 12 | 97 | 3.2 | 3.2 | 0.00 | 0.36 | 0.36 | 73 | 1010.8 |
| 20260508004311 | 12 | 174 | 1.6 | 4.8 | 0.00 | 0.36 | 0.36 | 72 | 1010.7 |
| 20260508003807 | 13 | 157 | 1.6 | 4.8 | 0.00 | 0.36 | 0.36 | 71 | 1010.8 |
| 20260508003305 | 13 | 174 | 0.0 | 1.6 | 0.00 | 0.36 | 0.36 | 71 | 1010.8 |
| 20260508002801 | 13 | 148 | 0.0 | 1.6 | 0.00 | 0.36 | 0.36 | 71 | 1010.7 |
| 20260508002258 | 13 | 334 | 0.0 | 4.8 | 0.00 | 0.36 | 0.36 | 72 | 1010.7 |
| 20260508001754 | 13 | 210 | 0.0 | 1.6 | 0.00 | 0.36 | 0.36 | 72 | 1010.5 |
| 20260508001250 | 13 | 198 | 1.6 | 6.4 | 0.00 | 0.36 | 0.36 | 73 | 1010.6 |
| 20260508000746 | 13 | 205 | 6.4 | 6.4 | 0.00 | 0.36 | 0.36 | 73 | 1010.5 |
| 20260508000244 | 14 | 228 | 3.2 | 3.2 | 0.00 | 0.36 | 0.36 | 73 | 1010.7 |
| 20260507235739 | 14 | 199 | 0.0 | 0.0 | 0.00 | 0.36 | 0.36 | 73 | 1010.7 |
| 20260507235238 | 15 | 204 | 0.0 | 0.0 | 0.00 | 0.36 | 0.36 | 72 | 1010.5 |
| 20260507234734 | 15 | 199 | 0.0 | 1.6 | 0.00 | 0.36 | 0.36 | 72 | 1010.4 |
| 20260507234231 | 15 | 91 | 3.2 | 4.8 | 0.00 | 0.36 | 0.36 | 71 | 1010.6 |
| 20260507233727 | 15 | 196 | 0.0 | 4.8 | 0.00 | 0.36 | 0.36 | 71 | 1010.5 |
| 20260507233225 | 15 | 321 | 1.6 | 3.2 | 0.00 | 0.36 | 0.36 | 71 | 1010.5 |
| 20260507232722 | 16 | 236 | 6.4 | 11.3 | 0.00 | 0.36 | 0.36 | 70 | 1010.4 |
| 20260507232219 | 16 | 223 | 4.8 | 9.7 | 0.00 | 0.36 | 0.36 | 71 | 1010.3 |
| 20260507231716 | 16 | 293 | 11.3 | 16.1 | 0.00 | 0.36 | 0.36 | 71 | 1010.1 |
| 20260507231213 | 16 | 8 | 6.4 | 22.5 | 0.00 | 0.36 | 0.36 | 72 | 1010.1 |
| 20260507230709 | 16 | 229 | 12.9 | 20.9 | 0.00 | 0.36 | 0.36 | 74 | 1010.0 |
| 20260507230207 | 16 | 173 | 4.8 | 6.4 | 0.00 | 0.36 | 0.36 | 75 | 1010.0 |
| 20260507225706 | 17 | 165 | 1.6 | 12.9 | 0.00 | 0.36 | 0.36 | 75 | 1010.2 |
| 20260507225203 | 17 | 164 | 3.2 | 9.7 | 0.00 | 0.36 | 0.36 | 77 | 1009.9 |
| 20260507224659 | 17 | 342 | 8.0 | 11.3 | 0.00 | 0.36 | 0.36 | 78 | 1009.9 |
| 20260507224155 | 16 | 332 | 4.8 | 11.3 | 0.00 | 0.36 | 0.36 | 79 | 1009.9 |
| 20260507223652 | 16 | 231 | 9.7 | 12.9 | 0.00 | 0.36 | 0.36 | 80 | 1009.6 |
| 20260507223149 | 16 | 287 | 1.6 | 9.7 | 0.00 | 0.36 | 0.36 | 82 | 1009.7 |
| 20260507222646 | 16 | 239 | 1.6 | 3.2 | 0.00 | 0.36 | 0.36 | 84 | 1009.6 |
| 20260507222142 | 16 | 193 | 4.8 | 6.4 | 0.00 | 0.36 | 0.36 | 85 | 1009.5 |
| 20260507221638 | 16 | 138 | 1.6 | 9.7 | 0.00 | 0.36 | 0.36 | 86 | 1009.5 |
| 20260507221134 | 16 | 319 | 3.2 | 11.3 | 0.00 | 0.36 | 0.36 | 87 | 1009.3 |
| 20260507220632 | 16 | 309 | 6.4 | 11.3 | 0.00 | 0.36 | 0.36 | 88 | 1009.3 |
| 20260507220130 | 16 | 313 | 8.0 | 17.7 | 0.00 | 0.36 | 0.36 | 89 | 1009.3 |
| 20260507215625 | 16 | 228 | 8.0 | 11.3 | 0.00 | 0.36 | 0.36 | 90 | 1009.4 |
| 20260507215123 | 16 | 210 | 11.3 | 16.1 | 0.00 | 0.36 | 0.36 | 91 | 1009.2 |
| 20260507214620 | 16 | 171 | 0.0 | 0.0 | 0.00 | 0.36 | 0.36 | 91 | 1008.7 |
| 20260507214117 | 16 | 179 | 0.0 | 3.2 | 0.00 | 0.36 | 0.36 | 91 | 1008.8 |
| 20260507213613 | 16 | 184 | 0.0 | 4.8 | 0.00 | 0.36 | 0.36 | 91 | 1008.8 |
| 20260507213110 | 16 | 163 | 3.2 | 11.3 | 0.00 | 0.36 | 0.36 | 91 | 1008.5 |
| 20260507212606 | 17 | 166 | 3.2 | 4.8 | 0.00 | 0.36 | 0.36 | 91 | 1008.3 |
| 20260507212103 | 17 | 136 | 3.2 | 4.8 | 0.00 | 0.36 | 0.36 | 91 | 1008.4 |
| 20260507211600 | 17 | 132 | 3.2 | 3.2 | 0.00 | 0.36 | 0.36 | 92 | 1008.3 |
| 20260507211055 | 17 | 150 | 8.0 | 9.7 | 0.00 | 0.36 | 0.36 | 91 | 1008.4 |
| 20260507210553 | 17 | 100 | 4.8 | 9.7 | 0.00 | 0.36 | 0.36 | 92 | 1008.2 |
| 20260507210050 | 17 | 95 | 6.4 | 14.5 | 0.00 | 0.36 | 0.36 | 92 | 1008.2 |
| 20260507205546 | 17 | 157 | 6.4 | 11.3 | 0.00 | 0.36 | 0.36 | 92 | 1008.0 |
| 20260507205043 | 17 | 86 | 3.2 | 6.4 | 0.00 | 0.36 | 0.36 | 92 | 1007.8 |
| 20260507204539 | 17 | 168 | 6.4 | 12.9 | 0.00 | 0.36 | 0.36 | 93 | 1008.0 |
| 20260507204037 | 17 | 182 | 3.2 | 6.4 | 0.00 | 0.36 | 0.36 | 93 | 1008.0 |
| 20260507203535 | 17 | 117 | 6.4 | 9.7 | 0.00 | 0.36 | 0.36 | 93 | 1007.9 |
| 20260507203032 | 16 | 106 | 8.0 | 11.3 | 0.00 | 0.36 | 0.36 | 93 | 1007.8 |
| 20260507202527 | 16 | 109 | 9.7 | 12.9 | 0.00 | 0.36 | 0.36 | 93 | 1007.8 |
| 20260507202024 | 17 | 129 | 6.4 | 11.3 | 0.00 | 0.36 | 0.36 | 93 | 1007.7 |
| 20260507201520 | 16 | 168 | 11.3 | 12.9 | 0.00 | 0.36 | 0.36 | 93 | 1007.6 |
| 20260507201016 | 17 | 166 | 8.0 | 12.9 | 0.00 | 0.36 | 0.36 | 93 | 1007.8 |
| 20260507200511 | 17 | 128 | 4.8 | 11.3 | 0.00 | 0.36 | 0.36 | 93 | 1007.7 |
| 20260507200008 | 17 | 125 | 6.4 | 11.3 | 0.00 | 0.36 | 0.36 | 93 | 1007.6 |
| 20260507195505 | 18 | 90 | 9.7 | 11.3 | 0.00 | 0.36 | 0.36 | 93 | 1007.5 |
| 20260507195003 | 17 | 94 | 6.4 | 14.5 | 0.00 | 0.36 | 0.36 | 94 | 1007.6 |
| 20260507194459 | 17 | 182 | 8.0 | 14.5 | 0.00 | 0.36 | 0.36 | 94 | 1007.6 |
| 20260507193955 | 17 | 108 | 6.4 | 14.5 | 0.00 | 0.36 | 0.36 | 94 | 1007.8 |
| 20260507193452 | 17 | 91 | 11.3 | 14.5 | 0.00 | 0.36 | 0.36 | 95 | 1007.5 |
| 20260507192949 | 17 | 53 | 9.7 | 16.1 | 0.00 | 0.36 | 0.36 | 95 | 1007.5 |
| 20260507192444 | 17 | 89 | 9.7 | 14.5 | 0.00 | 0.36 | 0.36 | 95 | 1007.6 |
| 20260507191942 | 16 | 89 | 8.0 | 12.9 | 0.00 | 0.36 | 0.36 | 95 | 1007.4 |
| 20260507191438 | 16 | 78 | 8.0 | 12.9 | 0.00 | 0.36 | 0.36 | 95 | 1007.8 |
| 20260507190935 | 16 | 69 | 6.4 | 17.7 | 0.00 | 0.36 | 0.36 | 95 | 1007.6 |
| 20260507190432 | 16 | 65 | 12.9 | 14.5 | 0.00 | 0.36 | 0.36 | 96 | 1007.9 |
| 20260507185931 | 16 | 102 | 6.4 | 16.1 | 0.00 | 0.36 | 0.36 | 95 | 1008.1 |
| 20260507185428 | 16 | 124 | 6.4 | 14.5 | 0.18 | 0.36 | 0.36 | 95 | 1007.9 |
| 20260507184924 | 16 | 127 | 6.4 | 11.3 | 0.18 | 0.36 | 0.36 | 95 | 1008.3 |
| 20260507184422 | 16 | 154 | 6.4 | 9.7 | 0.00 | 0.33 | 0.33 | 95 | 1008.1 |
| 20260507183920 | 16 | 167 | 4.8 | 4.8 | 0.00 | 0.33 | 0.33 | 96 | 1008.1 |
| 20260507183416 | 16 | 80 | 6.4 | 9.7 | 0.00 | 0.33 | 0.33 | 96 | 1008.0 |
| 20260507182914 | 16 | 108 | 4.8 | 12.9 | 0.00 | 0.33 | 0.33 | 96 | 1008.1 |
| 20260507182409 | 16 | 69 | 6.4 | 12.9 | 0.00 | 0.33 | 0.33 | 96 | 1008.0 |
| 20260507181906 | 17 | 4 | 8.0 | 12.9 | 0.00 | 0.33 | 0.33 | 96 | 1007.9 |
| 20260507181402 | 17 | 109 | 3.2 | 12.9 | 0.00 | 0.33 | 0.33 | 96 | 1007.8 |
| 20260507180859 | 17 | 60 | 9.7 | 16.1 | 0.00 | 0.33 | 0.33 | 96 | 1007.4 |
| 20260507180355 | 17 | 45 | 9.7 | 14.5 | 0.00 | 0.33 | 0.33 | 96 | 1007.7 |
| 20260507175852 | 17 | 94 | 11.3 | 14.5 | 0.30 | 0.33 | 0.33 | 96 | 1007.8 |
| 20260507175349 | 16 | 92 | 3.2 | 14.5 | 0.61 | 0.33 | 0.33 | 95 | 1007.9 |
| 20260507174846 | 17 | 48 | 3.2 | 4.8 | 0.89 | 0.28 | 0.28 | 95 | 1008.2 |
| 20260507174343 | 17 | 200 | 1.6 | 3.2 | 0.61 | 0.23 | 0.23 | 95 | 1007.9 |
| 20260507173841 | 18 | 109 | 1.6 | 12.9 | 0.00 | 0.13 | 0.13 | 95 | 1008.0 |
| 20260507173338 | 18 | 23 | 8.0 | 9.7 | 0.00 | 0.13 | 0.13 | 96 | 1007.7 |
| 20260507172834 | 18 | 51 | 3.2 | 4.8 | 0.00 | 0.13 | 0.13 | 96 | 1008.1 |
| 20260507172331 | 18 | 106 | 1.6 | 3.2 | 0.00 | 0.13 | 0.13 | 96 | 1008.0 |
| 20260507171827 | 17 | 191 | 1.6 | 4.8 | 0.18 | 0.13 | 0.13 | 96 | 1007.9 |
| 20260507171324 | 17 | 198 | 0.0 | 3.2 | 0.18 | 0.13 | 0.13 | 97 | 1008.2 |
| 20260507170821 | 17 | 157 | 1.6 | 6.4 | 0.00 | 0.10 | 0.10 | 96 | 1007.9 |
| 20260507170317 | 17 | 349 | 3.2 | 6.4 | 0.00 | 0.10 | 0.10 | 97 | 1008.2 |
| 20260507165813 | 17 | 28 | 6.4 | 14.5 | 0.00 | 0.10 | 0.10 | 97 | 1008.0 |
| 20260507165309 | 18 | 355 | 11.3 | 14.5 | 0.00 | 0.10 | 0.10 | 97 | 1008.1 |
| 20260507164805 | 18 | 81 | 8.0 | 11.3 | 0.00 | 0.10 | 0.10 | 97 | 1008.2 |
| 20260507164303 | 18 | 129 | 4.8 | 6.4 | 0.00 | 0.10 | 0.10 | 97 | 1008.0 |
| 20260507163800 | 18 | 82 | 6.4 | 9.7 | 0.00 | 0.10 | 0.10 | 98 | 1008.1 |
| 20260507163257 | 18 | 100 | 3.2 | 6.4 | 0.00 | 0.10 | 0.10 | 98 | 1008.0 |
| 20260507162753 | 18 | 359 | 1.6 | 9.7 | 0.00 | 0.10 | 0.10 | 98 | 1008.1 |
| 20260507162249 | 18 | 80 | 6.4 | 12.9 | 0.00 | 0.10 | 0.10 | 98 | 1008.2 |
| 20260507161747 | 19 | 50 | 8.0 | 11.3 | 0.00 | 0.10 | 0.10 | 99 | 1008.0 |
| 20260507161243 | 19 | 62 | 6.4 | 6.4 | 0.00 | 0.10 | 0.10 | 99 | 1008.0 |
| 20260507160738 | 20 | 59 | 8.0 | 11.3 | 0.00 | 0.10 | 0.10 | 99 | 1007.8 |
| 20260507160235 | 19 | 168 | 1.6 | 4.8 | 0.00 | 0.10 | 0.10 | 99 | 1008.1 |
| 20260507155731 | 19 | 144 | 6.4 | 9.7 | 0.00 | 0.10 | 0.10 | 99 | 1007.9 |
| 20260507155227 | 20 | 56 | 6.4 | 9.7 | 0.00 | 0.10 | 0.10 | 99 | 1008.0 |
| 20260507154724 | 20 | 120 | 6.4 | 6.4 | 0.00 | 0.10 | 0.10 | 99 | 1008.1 |
| 20260507154222 | 19 | 83 | 6.4 | 11.3 | 0.00 | 0.10 | 0.10 | 99 | 1008.1 |
| 20260507153718 | 20 | 137 | 3.2 | 6.4 | 0.00 | 0.10 | 0.10 | 99 | 1008.1 |
| 20260507153215 | 19 | 190 | 1.6 | 6.4 | 0.00 | 0.10 | 0.10 | 99 | 1008.4 |
| 20260507152711 | 19 | 167 | 1.6 | 9.7 | 0.00 | 0.10 | 0.10 | 99 | 1008.4 |
| 20260507152207 | 19 | 75 | 6.4 | 6.4 | 0.00 | 0.10 | 0.10 | 99 | 1008.5 |
| 20260507151704 | 19 | 104 | 4.8 | 4.8 | 0.00 | 0.10 | 0.10 | 99 | 1008.2 |
| 20260507151200 | 20 | 191 | 0.0 | 9.7 | 0.00 | 0.10 | 0.10 | 99 | 1008.2 |
| 20260507150657 | 20 | 205 | 1.6 | 3.2 | 0.00 | 0.10 | 0.10 | 99 | 1008.4 |
| 20260507150154 | 18 | 187 | 1.6 | 4.8 | 0.00 | 0.10 | 0.10 | 99 | 1008.3 |
| 20260507145649 | 18 | 189 | 0.0 | 3.2 | 0.00 | 0.10 | 0.10 | 99 | 1008.5 |
| 20260507145147 | 18 | 188 | 3.2 | 3.2 | 0.00 | 0.10 | 0.10 | 99 | 1008.5 |
| 20260507144643 | 18 | 185 | 0.0 | 4.8 | 0.00 | 0.10 | 0.10 | 99 | 1008.6 |
| 20260507144142 | 18 | 166 | 3.2 | 3.2 | 0.00 | 0.10 | 0.10 | 99 | 1008.4 |
| 20260507143638 | 18 | 192 | 0.0 | 0.0 | 0.00 | 0.10 | 0.10 | 99 | 1008.7 |
| 20260507143135 | 18 | 200 | 0.0 | 1.6 | 0.00 | 0.10 | 0.10 | 99 | 1008.6 |
| 20260507142630 | 18 | 198 | 0.0 | 0.0 | 0.00 | 0.10 | 0.10 | 99 | 1008.7 |
| 20260507142128 | 18 | 191 | 0.0 | 0.0 | 0.00 | 0.10 | 0.10 | 99 | 1008.8 |
| 20260507141624 | 18 | 196 | 0.0 | 1.6 | 0.00 | 0.10 | 0.10 | 99 | 1009.0 |
| 20260507141121 | 18 | 200 | 0.0 | 1.6 | 0.00 | 0.10 | 0.10 | 99 | 1008.5 |
| 20260507140617 | 18 | 231 | 3.2 | 4.8 | 0.00 | 0.10 | 0.10 | 99 | 1008.6 |
| 20260507140115 | 18 | 219 | 1.6 | 4.8 | 0.00 | 0.10 | 0.10 | 99 | 1008.8 |
| 20260507135612 | 17 | 226 | 0.0 | 1.6 | 0.00 | 0.10 | 0.10 | 99 | 1008.3 |
| 20260507135109 | 17 | 216 | 1.6 | 3.2 | 0.00 | 0.10 | 0.10 | 99 | 1008.4 |
| 20260507134605 | 17 | 215 | 1.6 | 3.2 | 0.00 | 0.10 | 0.10 | 99 | 1008.5 |
| 20260507134101 | 17 | 221 | 1.6 | 6.4 | 0.00 | 0.10 | 0.10 | 99 | 1008.5 |
| 20260507133557 | 17 | 203 | 0.0 | 3.2 | 0.00 | 0.10 | 0.10 | 99 | 1008.2 |
| 20260507133055 | 17 | 202 | 0.0 | 1.6 | 0.00 | 0.10 | 0.10 | 99 | 1008.3 |
| 20260507132552 | 17 | 209 | 1.6 | 1.6 | 0.00 | 0.10 | 0.10 | 99 | 1008.6 |
| 20260507132048 | 17 | 203 | 0.0 | 0.0 | 0.00 | 0.10 | 0.10 | 99 | 1008.6 |
| 20260507131545 | 17 | 196 | 0.0 | 3.2 | 0.00 | 0.10 | 0.10 | 99 | 1008.6 |
| 20260507131043 | 17 | 308 | 3.2 | 4.8 | 0.00 | 0.10 | 0.10 | 99 | 1008.7 |
| 20260507130539 | 17 | 315 | 3.2 | 3.2 | 0.00 | 0.10 | 0.10 | 99 | 1008.3 |
| 20260507130038 | 17 | 203 | 0.0 | 3.2 | 0.00 | 0.10 | 0.10 | 99 | 1008.6 |